Greenland, New Hampshire, United States (03840)
Lat: 43.04N, Lon: 70.83W
Wx Zone: NHZ014
Local Info
Past Weather Observations for Friday, March 27, 2015

NOTE: This archive is for the closest National Weather Service station to Greenland. Information may differ from the station used for current weather conditions.

Click here for Long-term Archive

Time Weather Temperature Dewpoint Humidity Pressure Winds Precip Visibility
23:58
Overcast
36°F / 2°C 32°F / 0°C 87% 29.74 in
(1007 mb)
NW 3.5 mph
(NW 6 kph)
- 10SM
22:58
Mostly Cloudy
Fog
34°F / 1°C 34°F / 1°C 100% 29.74 in
(1007 mb)
W 2.3 mph
(W 4 kph)
- 7SM
22:38
Mostly Cloudy
Fog And Mist
34°F / 1°C 32°F / 0°C 93% 29.74 in
(1007 mb)
WNW 3.5 mph
(WNW 6 kph)
- 4SM
21:58
Mostly Cloudy
34°F / 1°C 34°F / 1°C 100% 29.74 in
(1007 mb)
SSW 2.3 mph
(SSW 4 kph)
- 10SM
20:58
Overcast
36°F / 2°C 34°F / 1°C 93% 29.71 in
(1006 mb)
W 2.3 mph
(W 4 kph)
- 10SM
19:58
Mostly Cloudy
37°F / 3°C 36°F / 2°C 93% 29.74 in
(1007 mb)
WNW 2.3 mph
(WNW 4 kph)
- 10SM
18:58
Mostly Cloudy
39°F / 4°C 36°F / 2°C 87% 29.71 in
(1006 mb)
Calm - 10SM
17:58
Mostly Cloudy
39°F / 4°C 36°F / 2°C 87% 29.71 in
(1006 mb)
SW 2.3 mph
(SW 4 kph)
- 10SM
16:58
Overcast
41°F / 5°C 36°F / 2°C 81% 29.68 in
(1005 mb)
SSW 3.5 mph
(SSW 6 kph)
- 10SM
16:28
Overcast
41°F / 5°C 37°F / 3°C 87% 29.68 in
(1005 mb)
SSW 3.5 mph
(SSW 6 kph)
- 10SM
15:58
Overcast
41°F / 5°C 36°F / 2°C 81% 29.68 in
(1005 mb)
SSW 5.8 mph
(SSW 9 kph)
- 10SM
14:58
Overcast
43°F / 6°C 36°F / 2°C 76% 29.68 in
(1005 mb)
SSW 5.8 mph
(SSW 9 kph)
- 10SM
14:28
Overcast
43°F / 6°C 36°F / 2°C 76% 29.68 in
(1005 mb)
SSW 4.6 mph
(SSW 7 kph)
- 10SM
13:58
Overcast
43°F / 6°C 36°F / 2°C 76% 29.68 in
(1005 mb)
SSW 5.8 mph
(SSW 9 kph)
- 10SM
12:58
Overcast
41°F / 5°C 36°F / 2°C 81% 29.68 in
(1005 mb)
SSW 4.6 mph
(SSW 7 kph)
- 10SM
12:28
Overcast
41°F / 5°C 36°F / 2°C 81% 29.68 in
(1005 mb)
NNW 3.5 mph
(NNW 6 kph)
- 10SM
11:58
Overcast
41°F / 5°C 36°F / 2°C 81% 29.71 in
(1006 mb)
NW 3.5 mph
(NW 6 kph)
0.00 in
(0.00 mm)
10SM
11:14
Overcast
39°F / 4°C 36°F / 2°C 87% 29.71 in
(1006 mb)
NW 3.5 mph
(NW 6 kph)
- 10SM
10:58
Overcast
Light Rain
39°F / 4°C 36°F / 2°C 87% 29.71 in
(1006 mb)
NW 5.8 mph
(NW 9 kph)
0.00 in
(0.00 mm)
10SM
09:58
Overcast
Light Rain
39°F / 4°C 36°F / 2°C 87% 29.74 in
(1007 mb)
NW 5.8 mph
(NW 9 kph)
0.00 in
(0.00 mm)
10SM
09:28
Overcast
Light Rain
37°F / 3°C 36°F / 2°C 93% 29.71 in
(1006 mb)
NE 3.5 mph
(NE 6 kph)
- 10SM
08:58
Overcast
Light Rain
39°F / 4°C 36°F / 2°C 87% 29.71 in
(1006 mb)
ENE 5.8 mph
(ENE 9 kph)
0.00 in
(0.00 mm)
10SM
07:58
Overcast
Light Rain
37°F / 3°C 37°F / 3°C 100% 29.71 in
(1006 mb)
N 4.6 mph
(N 7 kph)
0.02 in
(0.51 mm)
7SM
07:43
Overcast
Light Rain
37°F / 3°C 37°F / 3°C 100% 29.71 in
(1006 mb)
N 2.3 mph
(N 4 kph)
- 5SM
06:58
Overcast
Light Rain
37°F / 3°C 37°F / 3°C 100% 29.74 in
(1007 mb)
NW 6.9 mph
(NW 11 kph)
0.04 in
(1.02 mm)
4SM
06:32
Overcast
Light Rain
37°F / 3°C 37°F / 3°C 100% 29.71 in
(1006 mb)
NW 5.8 mph
(NW 9 kph)
- 2SM
05:58
Overcast
Light Rain
37°F / 3°C 37°F / 3°C 100% 29.71 in
(1006 mb)
W 2.3 mph
(W 4 kph)
0.02 in
(0.51 mm)
5SM
05:13
Overcast
Light Rain
37°F / 3°C 37°F / 3°C 100% 29.68 in
(1005 mb)
NNW 2.3 mph
(NNW 4 kph)
- 7SM
04:58
Overcast
Light Rain
37°F / 3°C 37°F / 3°C 100% 29.68 in
(1005 mb)
NW 1.2 mph
(NW 2 kph)
0.01 in
(0.25 mm)
7SM
04:43
Overcast
Light Rain
37°F / 3°C 37°F / 3°C 100% 29.68 in
(1005 mb)
W 2.3 mph
(W 4 kph)
- 7SM
03:58
Overcast
Light Rain
37°F / 3°C 37°F / 3°C 100% 29.68 in
(1005 mb)
NW 5.8 mph
(NW 9 kph)
0.00 in
(0.00 mm)
7SM
03:16
Overcast
Light Rain
39°F / 4°C 37°F / 3°C 93% 29.65 in
(1004 mb)
WNW 3.5 mph
(WNW 6 kph)
- 10SM
02:58
Overcast
37°F / 3°C 37°F / 3°C 100% 29.65 in
(1004 mb)
NW 6.9 mph
(NW 11 kph)
0.00 in
(0.00 mm)
10SM
02:38
Overcast
Light Rain
37°F / 3°C 37°F / 3°C 100% 29.65 in
(1004 mb)
NW 5.8 mph
(NW 9 kph)
- 8SM
02:13
Overcast
37°F / 3°C 37°F / 3°C 100% 29.65 in
(1004 mb)
NNW 5.8 mph
(NNW 9 kph)
- 10SM
01:58
Overcast
Light Rain
39°F / 4°C 39°F / 4°C 100% 29.65 in
(1004 mb)
NNW 5.8 mph
(NNW 9 kph)
0.01 in
(0.25 mm)
7SM
01:39
Overcast
Light Rain
39°F / 4°C 39°F / 4°C 100% 29.65 in
(1004 mb)
N 4.6 mph
(N 7 kph)
- 7SM
00:58
Overcast
Light Rain
41°F / 5°C 39°F / 4°C 93% 29.65 in
(1004 mb)
N 4.6 mph
(N 7 kph)
0.02 in
(0.51 mm)
6SM
Time Weather Temperature Dewpoint Humidity Pressure Winds Precip Visibility


Weather for websites

WeatherForYou.com, LLC is not responsible for any damages or problems caused by this service. Current weather conditions are obtained from the closest station including government and personal stations which may have varying degrees of accuracy. Weather forecasts are derived from the NOAA NDFD. Like all things, this site belongs to Jesus Christ... He just trusts me to maintain it. If you have any questions or comments email webmaster@weatherforyou.com

Copyright © 2015, WeatherForYou.com LLC. All rights reserved.